Location: Winnipeg
(49.8830°N, 97.1670°W)
Time: 06:01:18
(UTC-05:00)

X-37B - Visible Passes

Search period start: 25 June 2021 00:00
Search period end: 05 July 2021 00:00
Orbit: 386 x 389 km, 45.0° (Epoch: 23 June)

Date Brightness Start Highest point End Pass type
(mag) Time Alt. Az. Time Alt. Az. Time Alt. Az.
25 Jun 1.6 22:55:05 10° SW 22:57:52 28° SSE 23:00:38 10° ESE visible
26 Jun 1.8 00:31:12 10° WSW 00:33:13 27° SW 00:33:13 27° SW visible
26 Jun 1.3 23:32:56 10° WSW 23:35:51 34° S 23:37:18 22° SE visible
27 Jun 3.2 01:09:29 10° WSW 01:09:34 10° WSW 01:09:34 10° WSW visible
27 Jun 1.4 22:34:43 10° WSW 22:37:37 32° S 22:40:30 10° ESE visible
28 Jun 1.7 00:11:03 10° WSW 00:13:32 27° SSW 00:13:32 27° SSW visible
28 Jun 1.4 23:12:43 10° WSW 23:15:37 32° S 23:17:28 18° SE visible
29 Jun 3.2 00:49:37 10° WSW 00:49:43 10° WSW 00:49:43 10° WSW visible
29 Jun 2.0 23:51:00 10° WSW 23:53:34 22° SSW 23:53:37 22° SSW visible
30 Jun 1.7 22:52:35 10° WSW 22:55:21 28° SSW 22:57:31 14° SE visible
01 Jul 2.4 23:31:08 10° WSW 23:33:14 16° SSW 23:33:40 16° SSW visible
02 Jul 2.2 22:32:32 10° WSW 22:35:05 22° SSW 22:37:35 10° SE visible
03 Jul 3.0 23:11:50 10° SW 23:12:50 11° SSW 23:13:47 10° SSW visible
